Wilson Gaeta — 8PTS — position and weather

sailwx.info

Track history (hours):
 
Tides and Currents Weather Stations Pressure Air Temp Water Temp Dewpoint Dewpoint Depression Visibility Wind Speed Wind Dir Waves Ship Positions

Wilson Gaeta

Last reported at 2014-Oct-24 15:33 UTC. Time now 2014-Oct-24 16:16 UTC.
Position N 51°54' E 004°22'.

Length 88 m; draft 5.7 m.

Type: Cargo ship. MMSI: 314237000.

Date/timePositionNaut miles runAvg speedWind from/ knotsBaromVisibWave heightAir tempDewpointWater temp
2014-Oct-24 15:33N 51°54' E 004°22'0 0.0
2014-Oct-24 14:33N 51°54' E 004°22'0 0.0
2014-Oct-24 13:33N 51°54' E 004°22'0 0.0
2014-Oct-24 12:33N 51°54' E 004°22'0 0.0
2014-Oct-24 11:33N 51°54' E 004°22'0 0.0
2014-Oct-24 10:33N 51°54' E 004°22'0 0.0
2014-Oct-24 09:33N 51°54' E 004°22'0 0.0
2014-Oct-24 08:30N 51°54' E 004°22'0 0.0
2014-Oct-24 07:33N 51°54' E 004°22'0 0.0
2014-Oct-24 06:33N 51°54' E 004°22'0 0.0
2014-Oct-24 05:33N 51°54' E 004°22'0 0.0
2014-Oct-24 04:33N 51°54' E 004°22'0 0.0
2014-Oct-24 03:33N 51°54' E 004°22'1 1.0
2014-Oct-24 02:33N 51°54' E 004°21'2 1.8
2014-Oct-24 01:31N 51°52' E 004°19'0 0.0
2014-Oct-24 00:31N 51°52' E 004°19'0 0.0
2014-Oct-23 23:28N 51°52' E 004°19'0 0.0
2014-Oct-23 22:31N 51°52' E 004°19'0 0.0
2014-Oct-23 21:31N 51°52' E 004°19'0 0.0
2014-Oct-23 20:31N 51°52' E 004°19'0 0.0
2014-Oct-23 19:31N 51°52' E 004°19'0 0.0
2014-Oct-23 18:25N 51°52' E 004°19'0 0.0
2014-Oct-23 17:28N 51°52' E 004°19'0 0.0
2014-Oct-23 16:26N 51°52' E 004°19'0 0.0
2014-Oct-23 15:25N 51°52' E 004°19'0 0.0
2014-Oct-23 14:30N 51°52' E 004°19'0 0.0
2014-Oct-23 13:33N 51°52' E 004°19'0 0.0
2014-Oct-23 12:33N 51°52' E 004°19'2 1.6
2014-Oct-23 11:33N 51°54' E 004°18'7 7.3
2014-Oct-23 10:33N 51°58' E 004°08'7 6.6
2014-Oct-23 09:33N 51°60' E 003°58'7 7.0
2014-Oct-23 08:33N 52°02' E 003°47'5 5.2
2014-Oct-23 07:33N 52°07' E 003°44'1 1.0
2014-Oct-23 06:33N 52°08' E 003°44'0 0.1
2014-Oct-23 05:30N 52°08' E 003°44'0 0.0
2014-Oct-23 04:24N 52°08' E 003°44'1 0.6
2014-Oct-23 03:33N 52°08' E 003°44'6 6.2
2014-Oct-23 02:33N 52°14' E 003°46'5 5.4
2014-Oct-23 01:33N 52°20' E 003°48'5 4.7
2014-Oct-23 00:32N 52°24' E 003°50'73 5.6
2014-Oct-22 11:33N 53°31' E 004°41'5 5.1
2014-Oct-22 10:33N 53°32' E 004°49'4 4.5
2014-Oct-22 09:33N 53°33' E 004°56'4 4.1
2014-Oct-22 08:33N 53°35' E 005°03'3 3.5
2014-Oct-22 07:33N 53°36' E 005°08'3 2.8
2014-Oct-22 06:34N 53°36' E 005°13'3 2.7
2014-Oct-22 05:34N 53°37' E 005°17'3 2.8
2014-Oct-22 04:33N 53°38' E 005°22'4 3.9
2014-Oct-22 03:33N 53°41' E 005°19'6 6.3
2014-Oct-22 02:33N 53°45' E 005°11'6 6.0
2014-Oct-22 01:33N 53°50' E 005°04'6 5.8
2014-Oct-22 00:31N 53°54' E 004°58'5 5.6
2014-Oct-21 23:33N 53°59' E 004°52'6 5.5
2014-Oct-21 22:33N 54°04' E 004°48'6 5.7
2014-Oct-21 21:30N 54°09' E 004°44'  
Track history (hours):
 
Tides and Currents Weather Stations Pressure Air Temp Water Temp Dewpoint Dewpoint Depression Visibility Wind Speed Wind Dir Waves Ship Positions

Wilson Gaeta

Last reported at 2014-Oct-24 15:33 UTC. Time now 2014-Oct-24 16:16 UTC.
Position N 51°54' E 004°22'.

Length 88 m; draft 5.7 m.

Type: Cargo ship. MMSI: 314237000.

Date/timePositionNaut miles runAvg speedWind from/ knotsBaromVisibWave heightAir tempDewpointWater temp
2014-Oct-24 15:33N 51°54' E 004°22'0 0.0
2014-Oct-24 14:33N 51°54' E 004°22'0 0.0
2014-Oct-24 13:33N 51°54' E 004°22'0 0.0
2014-Oct-24 12:33N 51°54' E 004°22'0 0.0
2014-Oct-24 11:33N 51°54' E 004°22'0 0.0
2014-Oct-24 10:33N 51°54' E 004°22'0 0.0
2014-Oct-24 09:33N 51°54' E 004°22'0 0.0
2014-Oct-24 08:30N 51°54' E 004°22'0 0.0
2014-Oct-24 07:33N 51°54' E 004°22'0 0.0
2014-Oct-24 06:33N 51°54' E 004°22'0 0.0
2014-Oct-24 05:33N 51°54' E 004°22'0 0.0
2014-Oct-24 04:33N 51°54' E 004°22'0 0.0
2014-Oct-24 03:33N 51°54' E 004°22'1 1.0
2014-Oct-24 02:33N 51°54' E 004°21'2 1.8
2014-Oct-24 01:31N 51°52' E 004°19'0 0.0
2014-Oct-24 00:31N 51°52' E 004°19'0 0.0
2014-Oct-23 23:28N 51°52' E 004°19'0 0.0
2014-Oct-23 22:31N 51°52' E 004°19'0 0.0
2014-Oct-23 21:31N 51°52' E 004°19'0 0.0
2014-Oct-23 20:31N 51°52' E 004°19'0 0.0
2014-Oct-23 19:31N 51°52' E 004°19'0 0.0
2014-Oct-23 18:25N 51°52' E 004°19'0 0.0
2014-Oct-23 17:28N 51°52' E 004°19'0 0.0
2014-Oct-23 16:26N 51°52' E 004°19'0 0.0
2014-Oct-23 15:25N 51°52' E 004°19'0 0.0
2014-Oct-23 14:30N 51°52' E 004°19'0 0.0
2014-Oct-23 13:33N 51°52' E 004°19'0 0.0
2014-Oct-23 12:33N 51°52' E 004°19'2 1.6
2014-Oct-23 11:33N 51°54' E 004°18'7 7.3
2014-Oct-23 10:33N 51°58' E 004°08'7 6.6
2014-Oct-23 09:33N 51°60' E 003°58'7 7.0
2014-Oct-23 08:33N 52°02' E 003°47'5 5.2
2014-Oct-23 07:33N 52°07' E 003°44'1 1.0
2014-Oct-23 06:33N 52°08' E 003°44'0 0.1
2014-Oct-23 05:30N 52°08' E 003°44'0 0.0
2014-Oct-23 04:24N 52°08' E 003°44'1 0.6
2014-Oct-23 03:33N 52°08' E 003°44'6 6.2
2014-Oct-23 02:33N 52°14' E 003°46'5 5.4
2014-Oct-23 01:33N 52°20' E 003°48'5 4.7
2014-Oct-23 00:32N 52°24' E 003°50'73 5.6
2014-Oct-22 11:33N 53°31' E 004°41'5 5.1
2014-Oct-22 10:33N 53°32' E 004°49'4 4.5
2014-Oct-22 09:33N 53°33' E 004°56'4 4.1
2014-Oct-22 08:33N 53°35' E 005°03'3 3.5
2014-Oct-22 07:33N 53°36' E 005°08'3 2.8
2014-Oct-22 06:34N 53°36' E 005°13'3 2.7
2014-Oct-22 05:34N 53°37' E 005°17'3 2.8
2014-Oct-22 04:33N 53°38' E 005°22'4 3.9
2014-Oct-22 03:33N 53°41' E 005°19'6 6.3
2014-Oct-22 02:33N 53°45' E 005°11'6 6.0
2014-Oct-22 01:33N 53°50' E 005°04'6 5.8
2014-Oct-22 00:31N 53°54' E 004°58'5 5.6
2014-Oct-21 23:33N 53°59' E 004°52'6 5.5
2014-Oct-21 22:33N 54°04' E 004°48'6 5.7
2014-Oct-21 21:30N 54°09' E 004°44'  

Dump ship's entire track history